K1ABC Weather Reports


time (UTC)temp
F
wind
direction
speed
knots
gust
knots
rain 1hr
in
rain 24hr
in
rain mn
in
humidity
%
barometer
mb
20260507075707 50 300 0.9 6.1 0.00 0.24 0.00 85 1006.4
20260507075459 50 259 1.7 7.0 0.00 0.24 0.00 85 1006.4
20260507075255 50 290 1.7 7.0 0.00 0.24 0.00 85 1006.4
20260507075048 50 254 1.7 7.0 0.00 0.24 0.00 84 1006.3
20260507074843 50 273 1.7 7.0 0.00 0.24 0.00 84 1006.2
20260507074638 50 321 1.7 7.0 0.00 0.24 0.00 85 1006.0
20260507074317 50 262 0.9 7.0 0.00 0.24 0.00 85 1005.9
20260507074002 50 313 1.7 7.0 0.00 0.24 0.00 85 1005.8
20260507073753 51 256 0.9 7.0 0.00 0.24 0.00 85 1006.0
20260507073548 51 309 0.9 6.1 0.00 0.24 0.00 85 1006.0
20260507073345 51 253 0.9 6.1 0.00 0.24 0.00 85 1006.0
20260507073141 51 320 0.9 6.1 0.00 0.24 0.00 86 1006.0
20260507072936 51 288 0.9 6.1 0.00 0.24 0.00 85 1005.9
20260507072727 51 211 0.9 6.1 0.00 0.24 0.00 85 1005.7
20260507072528 51 21 0.9 6.1 0.00 0.24 0.00 85 1005.8
20260507072324 51 232 0.9 6.1 0.00 0.24 0.00 85 1005.8
20260507072124 51 287 0.9 7.8 0.00 0.24 0.00 86 1005.8
20260507071924 51 288 0.9 7.8 0.00 0.24 0.00 85 1005.9
20260507071719 51 190 0.9 7.8 0.00 0.24 0.00 86 1006.0
20260507071511 51 331 1.7 7.8 0.00 0.24 0.00 86 1005.9
20260507071149 51 276 1.7 7.8 0.00 0.24 0.00 85 1006.1
20260507070828 51 233 1.7 7.8 0.00 0.24 0.00 85 1006.1
20260507070629 51 233 1.7 7.8 0.00 0.24 0.00 85 1006.0
20260507070426 51 250 1.7 7.8 0.00 0.24 0.00 85 1005.8
20260507070218 51 242 1.7 7.8 0.00 0.24 0.00 85 1005.7
20260507070016 51 214 1.7 8.7 0.00 0.24 0.00 86 1005.6
20260507065815 51 214 2.6 8.7 0.00 0.24 0.00 85 1005.7
20260507065615 51 309 1.7 8.7 0.00 0.24 0.00 85 1005.6
20260507065413 51 5 1.7 8.7 0.00 0.24 0.00 85 1005.7
20260507065204 51 207 1.7 8.7 0.00 0.24 0.00 86 1005.8
20260507065003 51 277 1.7 8.7 0.00 0.24 0.00 86 1005.9
20260507064757 51 241 1.7 8.7 0.00 0.24 0.00 86 1005.9
20260507064548 51 254 1.7 8.7 0.00 0.24 0.00 86 1005.8
20260507064340 51 263 1.7 8.7 0.00 0.24 0.00 87 1005.7
20260507064026 51 307 0.9 6.1 0.00 0.24 0.00 86 1005.5
20260507063815 51 284 0.9 6.1 0.00 0.24 0.00 86 1005.5
20260507063459 51 59 0.9 4.3 0.00 0.24 0.00 86 1005.5
20260507063259 52 131 0.9 4.3 0.00 0.24 0.00 86 1005.6
20260507063055 52 206 0.9 4.3 0.00 0.24 0.00 86 1005.6
20260507062850 52 252 0.9 4.3 0.00 0.24 0.00 86 1005.4
20260507062645 52 284 0.9 5.2 0.00 0.24 0.00 86 1005.4
20260507062441 52 290 0.9 5.2 0.00 0.24 0.00 85 1005.6
20260507062125 52 286 0.9 5.2 0.00 0.24 0.00 86 1005.6
20260507061803 52 174 0.9 7.8 0.00 0.24 0.00 85 1005.5
20260507061447 52 281 0.9 7.8 0.00 0.24 0.00 84 1005.5
20260507061248 52 227 0.9 7.8 0.00 0.24 0.00 84 1005.6
20260507061039 52 347 0.9 7.8 0.00 0.24 0.00 85 1005.6
20260507060834 52 243 0.9 7.8 0.00 0.24 0.00 84 1005.6
20260507060514 52 266 0.9 7.8 0.00 0.24 0.00 85 1005.6
20260507060307 52 273 1.7 7.8 0.00 0.24 0.00 85 1005.6
20260507060057 52 191 1.7 7.8 0.00 0.24 0.00 85 1005.6
20260507055858 52 248 1.7 7.8 0.00 0.24 0.00 84 1005.7
20260507055650 52 240 1.7 6.1 0.00 0.24 0.00 84 1005.6
20260507055452 52 236 1.7 6.1 0.00 0.24 0.00 85 1005.9
20260507055131 52 298 1.7 6.1 0.00 0.24 0.00 85 1005.9
20260507054924 52 220 1.7 4.3 0.00 0.24 0.00 85 1006.0
20260507054718 52 246 1.7 3.5 0.00 0.24 0.00 85 1006.0
20260507054400 52 298 0.9 3.5 0.00 0.24 0.00 85 1006.0
20260507054159 52 269 0.9 5.2 0.00 0.24 0.00 85 1005.9
20260507053955 52 261 0.9 5.2 0.00 0.24 0.00 86 1006.0
20260507053746 52 263 1.7 5.2 0.00 0.24 0.00 85 1005.9
20260507053544 52 289 1.7 5.2 0.00 0.24 0.00 85 1005.9
20260507053345 52 220 1.7 5.2 0.00 0.24 0.00 85 1005.8
20260507053139 52 217 1.7 5.2 0.00 0.24 0.00 86 1005.9
20260507052823 52 269 1.7 5.2 0.00 0.24 0.00 86 1006.0
20260507052616 52 267 1.7 5.2 0.00 0.24 0.00 86 1006.1
20260507052253 52 254 1.7 4.3 0.00 0.24 0.00 86 1005.9
20260507051933 53 275 1.7 4.3 0.00 0.24 0.00 86 1005.9
20260507051725 53 334 0.9 3.5 0.00 0.24 0.00 86 1005.9
20260507051526 53 281 0.9 7.0 0.00 0.24 0.00 86 1005.8
20260507051320 53 257 1.7 7.0 0.00 0.24 0.00 86 1005.7
20260507051001 53 205 1.7 7.0 0.00 0.24 0.00 86 1005.6
20260507050802 53 205 1.7 7.0 0.00 0.24 0.00 85 1005.6
20260507050603 53 265 1.7 8.7 0.00 0.24 0.00 86 1005.7
20260507050404 53 191 0.9 8.7 0.00 0.24 0.00 86 1005.8
20260507050044 53 191 1.7 8.7 0.00 0.24 0.00 86 1005.8
20260507045834 53 281 1.7 8.7 0.00 0.24 0.00 86 1005.8
20260507045630 53 225 1.7 8.7 0.00 0.24 0.00 86 1005.7
20260507045423 53 213 1.7 8.7 0.00 0.24 0.00 87 1005.7
20260507045219 54 278 1.7 8.7 0.00 0.24 0.00 86 1005.7
20260507045018 54 276 1.7 8.7 0.00 0.24 0.00 87 1005.6
20260507044815 54 272 1.7 8.7 0.00 0.24 0.00 86 1005.6
20260507044454 54 318 0.9 6.1 0.00 0.24 0.00 87 1005.6
20260507044249 54 305 0.9 6.1 0.00 0.24 0.00 87 1005.6
20260507044049 54 271 0.9 6.1 0.00 0.24 0.00 87 1005.6
20260507043734 54 257 0.9 6.1 0.00 0.24 0.00 87 1005.6
20260507043534 54 232 0.9 10.4 0.00 0.24 0.00 87 1005.7
20260507043330 55 316 0.9 10.4 0.00 0.24 0.00 86 1005.7
20260507043009 55 275 0.9 10.4 0.00 0.24 0.00 87 1005.8
20260507042651 55 260 0.9 10.4 0.00 0.24 0.00 87 1005.9
20260507042443 55 252 1.7 10.4 0.00 0.24 0.00 87 1005.9
20260507042238 55 252 1.7 10.4 0.00 0.24 0.00 86 1005.9
20260507042032 55 240 2.6 10.4 0.00 0.24 0.00 86 1005.9
20260507041828 55 290 2.6 10.4 0.00 0.24 0.00 86 1005.8
20260507041626 55 238 2.6 10.4 0.00 0.24 0.00 86 1005.8
20260507041417 56 231 1.7 8.7 0.00 0.24 0.00 87 1005.8
20260507041206 56 297 2.6 7.0 0.00 0.24 0.00 87 1005.7
20260507041001 56 192 2.6 8.7 0.00 0.24 0.00 87 1005.6
20260507040753 56 298 1.7 8.7 0.00 0.24 0.00 86 1005.6
20260507040544 56 286 1.7 8.7 0.00 0.24 0.00 87 1005.5
20260507040341 56 266 1.7 8.7 0.00 0.24 0.00 88 1005.4
20260507040138 57 271 1.7 8.7 0.00 0.24 0.00 88 1005.4
20260507035937 57 265 1.7 8.7 0.00 0.24 0.25 89 1005.4
20260507035733 57 223 1.7 8.7 0.00 0.24 0.25 89 1005.4
20260507035529 57 270 0.9 8.7 0.00 0.24 0.25 89 1005.3
20260507035321 57 335 0.9 8.7 0.00 0.24 0.25 89 1005.3
20260507035112 57 0 0.9 7.8 0.00 0.24 0.24 90 1005.3
20260507034908 57 244 0.9 7.8 0.00 0.24 0.24 90 1005.1
20260507034547 58 253 0.9 7.8 0.00 0.24 0.24 90 1005.1
20260507034341 58 323 1.7 7.8 0.00 0.24 0.24 90 1005.1
20260507034019 58 206 1.7 6.1 0.00 0.24 0.24 90 1005.0
20260507033814 58 229 1.7 6.1 0.00 0.24 0.24 91 1005.1
20260507033613 58 267 1.7 7.0 0.00 0.24 0.24 91 1005.0
20260507033407 58 326 1.7 7.0 0.00 0.24 0.24 91 1004.9
20260507033208 58 42 1.7 7.0 0.00 0.24 0.24 90 1004.8
20260507033009 58 281 1.7 7.0 0.00 0.24 0.24 90 1004.9
20260507032806 58 246 1.7 7.0 0.00 0.24 0.24 90 1004.9
20260507032556 59 144 1.7 7.0 0.00 0.24 0.24 90 1005.0
20260507032356 59 0 1.7 7.0 0.00 0.24 0.24 90 1005.0
20260507032146 59 198 1.7 7.0 0.00 0.24 0.24 90 1004.9
20260507031940 59 200 1.7 7.0 0.00 0.24 0.24 91 1004.8
20260507031738 60 224 1.7 7.0 0.00 0.24 0.24 92 1004.8
20260507031529 60 257 1.7 5.2 0.00 0.24 0.24 92 1005.0
20260507031210 60 259 1.7 5.2 0.00 0.24 0.24 92 1004.8
20260507031006 60 249 1.7 3.5 0.00 0.24 0.24 92 1004.6
20260507030756 60 248 1.7 3.5 0.00 0.24 0.24 92 1004.5
20260507030547 60 229 1.7 3.5 0.00 0.24 0.24 92 1004.5
20260507030347 60 242 1.7 3.5 0.00 0.24 0.24 92 1004.5
20260507030143 60 235 1.7 3.5 0.00 0.24 0.24 92 1004.4
20260507025934 60 235 1.7 3.5 0.00 0.24 0.24 92 1004.4
20260507025729 60 234 1.7 3.5 0.00 0.24 0.24 92 1004.4
20260507025520 60 229 1.7 3.5 0.00 0.24 0.24 92 1004.4
20260507025318 60 193 1.7 3.5 0.00 0.24 0.24 92 1004.5
20260507025108 60 224 1.7 3.5 0.00 0.24 0.24 92 1004.4
20260507024904 60 224 1.7 3.5 0.00 0.24 0.24 92 1004.4
20260507024702 60 211 1.7 2.6 0.00 0.24 0.24 92 1004.4
20260507024501 60 236 1.7 2.6 0.00 0.24 0.24 92 1004.4
20260507024302 60 220 1.7 5.2 0.00 0.24 0.24 92 1004.5
20260507024101 60 220 1.7 5.2 0.00 0.24 0.24 92 1004.4
20260507023857 60 223 1.7 5.2 0.00 0.24 0.24 92 1004.4
20260507023533 60 225 1.7 5.2 0.00 0.24 0.24 92 1004.3
20260507023213 60 207 1.7 5.2 0.00 0.24 0.24 92 1004.4
20260507023006 60 226 1.7 5.2 0.00 0.24 0.24 92 1004.5
20260507022807 60 225 1.7 5.2 0.00 0.24 0.24 92 1004.5
20260507022606 60 229 1.7 5.2 0.00 0.24 0.24 92 1004.4
20260507022407 60 240 0.9 4.3 0.00 0.24 0.24 92 1004.4
20260507022203 60 240 1.7 4.3 0.00 0.24 0.24 92 1004.4
20260507021955 60 232 1.7 4.3 0.00 0.24 0.24 92 1004.5
20260507021745 60 209 1.7 5.2 0.00 0.24 0.24 92 1004.4
20260507021543 60 231 1.7 5.2 0.00 0.24 0.24 92 1004.4
20260507021335 60 227 1.7 5.2 0.00 0.24 0.24 92 1004.4
20260507021130 60 214 1.7 5.2 0.00 0.24 0.24 92 1004.5
20260507020920 60 216 1.7 5.2 0.00 0.24 0.24 92 1004.5
20260507020710 60 220 2.6 7.0 0.00 0.24 0.24 92 1004.5
20260507020509 60 223 1.7 7.0 0.00 0.24 0.24 92 1004.5
20260507020259 60 225 1.7 7.0 0.00 0.24 0.24 92 1004.5
20260507020059 60 202 2.6 7.0 0.00 0.24 0.24 92 1004.6
20260507015853 60 205 2.6 7.0 0.00 0.24 0.24 92 1004.6
20260507015645 60 217 2.6 7.0 0.00 0.24 0.24 92 1004.6
20260507015438 60 229 2.6 7.0 0.00 0.24 0.24 92 1004.6
20260507015239 60 207 2.6 7.0 0.00 0.24 0.24 92 1004.7
20260507015038 60 227 2.6 7.0 0.00 0.24 0.24 92 1004.7
20260507014828 60 223 2.6 4.3 0.00 0.24 0.24 93 1004.7
20260507014510 60 238 1.7 4.3 0.00 0.24 0.24 93 1004.7
20260507014311 60 242 1.7 4.3 0.00 0.24 0.24 93 1004.8
20260507014103 60 210 1.7 4.3 0.00 0.24 0.24 93 1004.7
20260507013855 60 234 1.7 4.3 0.00 0.24 0.24 93 1004.8
20260507013648 60 219 1.7 4.3 0.00 0.24 0.24 93 1004.8
20260507013334 60 216 1.7 4.3 0.00 0.24 0.24 93 1004.8
20260507013127 60 221 1.7 4.3 0.00 0.24 0.24 93 1004.8
20260507012920 60 247 1.7 4.3 0.00 0.24 0.24 93 1004.7
20260507012712 60 226 1.7 4.3 0.00 0.24 0.24 93 1004.7
20260507012510 60 246 1.7 4.3 0.00 0.24 0.24 93 1004.7
20260507012310 60 221 1.7 6.1 0.00 0.24 0.24 93 1004.8
20260507012110 60 232 1.7 6.1 0.00 0.24 0.24 93 1004.8
20260507011911 60 229 1.7 6.1 0.00 0.24 0.24 93 1004.7
20260507011712 60 210 1.7 6.1 0.00 0.24 0.24 93 1004.7
20260507011348 60 210 2.6 8.7 0.00 0.24 0.24 93 1004.8
20260507011141 60 190 2.6 8.7 0.00 0.24 0.24 93 1004.8
20260507010933 60 234 1.7 8.7 0.00 0.24 0.24 93 1004.9
20260507010617 60 214 1.7 8.7 0.00 0.24 0.24 93 1004.8
20260507010413 60 222 2.6 8.7 0.00 0.24 0.24 93 1004.8
20260507010206 60 217 2.6 8.7 0.00 0.24 0.24 93 1004.9
20260507005957 60 219 2.6 8.7 0.00 0.24 0.24 93 1004.9
20260507005758 60 219 2.6 8.7 0.00 0.24 0.24 93 1004.9
20260507005551 60 217 1.7 8.7 0.00 0.24 0.24 93 1004.9
20260507005344 60 163 1.7 7.8 0.00 0.24 0.24 93 1004.9
20260507005136 60 214 1.7 6.1 0.00 0.24 0.24 93 1004.8
20260507004927 60 180 1.7 6.1 0.00 0.24 0.24 93 1004.8
20260507004612 60 246 1.7 6.1 0.00 0.24 0.24 93 1004.8
20260507004405 60 225 1.7 6.1 0.00 0.24 0.24 93 1004.8
20260507004200 60 221 1.7 6.1 0.00 0.24 0.24 93 1004.7
20260507003950 60 219 2.6 6.1 0.00 0.24 0.24 93 1004.8
20260507003746 60 233 1.7 6.1 0.00 0.24 0.24 93 1004.8
20260507003539 60 200 1.7 6.1 0.00 0.24 0.24 93 1004.8
20260507003218 60 235 1.7 5.2 0.00 0.24 0.24 93 1004.8
20260507003015 60 242 1.7 5.2 0.00 0.24 0.24 93 1004.7
20260507002816 60 250 1.7 7.8 0.00 0.24 0.24 93 1004.7
20260507002606 60 237 2.6 7.8 0.00 0.24 0.24 93 1004.7
20260507002249 60 174 2.6 7.8 0.00 0.24 0.24 93 1004.7
20260507002042 60 230 1.7 7.8 0.00 0.24 0.24 93 1004.7
20260507001836 60 235 1.7 7.8 0.00 0.24 0.24 93 1004.7
20260507001633 60 227 1.7 8.7 0.00 0.24 0.24 93 1004.8
20260507001429 60 223 1.7 8.7 0.00 0.24 0.24 93 1004.7
20260507001104 60 244 1.7 8.7 0.00 0.24 0.24 93 1004.6
20260507000857 60 248 1.7 8.7 0.00 0.24 0.24 93 1004.6
20260507000646 60 233 1.7 8.7 0.00 0.24 0.24 93 1004.6
20260507000446 60 233 2.6 8.7 0.00 0.24 0.24 93 1004.6
20260507000237 60 219 1.7 8.7 0.00 0.24 0.24 93 1004.5
20260507000026 60 216 1.7 8.7 0.04 0.24 0.24 93 1004.6
20260506235818 60 150 1.7 6.1 0.04 0.24 0.24 93 1004.5
20260506235612 60 250 1.7 6.1 0.05 0.24 0.24 93 1004.5
20260506235404 60 273 1.7 7.0 0.06 0.24 0.24 93 1004.4
20260506235049 60 240 1.7 7.0 0.06 0.24 0.24 93 1004.4
20260506234842 60 238 1.7 7.0 0.06 0.24 0.24 93 1004.4
20260506234642 60 178 1.7 7.0 0.06 0.24 0.24 93 1004.4
20260506234433 60 225 1.7 7.0 0.06 0.23 0.24 93 1004.5
20260506234227 60 222 1.7 7.0 0.08 0.23 0.23 93 1004.5
20260506234020 60 223 1.7 7.0 0.10 0.23 0.23 93 1004.5
20260506233815 60 250 1.7 7.0 0.13 0.23 0.23 93 1004.6
20260506233613 60 234 2.6 7.0 0.13 0.21 0.23 93 1004.5
20260506233258 60 233 2.6 7.0 0.04 0.21 0.21 93 1004.5
20260506233059 60 229 2.6 7.0 0.04 0.21 0.21 93 1004.5
20260506232850 60 242 2.6 8.7 0.05 0.21 0.21 93 1004.6
20260506232651 60 223 2.6 8.7 0.06 0.21 0.21 93 1004.5
20260506232446 60 223 2.6 8.7 0.06 0.21 0.21 92 1004.6
20260506232243 60 222 2.6 8.7 0.06 0.21 0.21 92 1004.6
20260506231926 60 240 2.6 10.4 0.06 0.21 0.21 92 1004.6
20260506231726 60 218 2.6 10.4 0.06 0.21 0.21 92 1004.7
20260506231526 60 177 2.6 10.4 0.00 0.19 0.20 92 1004.7
20260506231317 60 229 2.6 10.4 0.00 0.19 0.20 92 1004.8
20260506231114 60 224 2.6 10.4 0.00 0.19 0.20 92 1004.8
20260506230910 60 228 2.6 10.4 0.00 0.19 0.20 92 1004.8
20260506230710 60 167 2.6 10.4 0.00 0.19 0.19 92 1004.8
20260506230501 60 180 2.6 10.4 0.00 0.19 0.19 92 1004.7
20260506230258 60 225 2.6 10.4 0.00 0.19 0.19 92 1004.7
20260506230057 60 206 2.6 9.6 0.00 0.19 0.19 92 1004.7
20260506225741 60 238 2.6 9.6 0.00 0.19 0.19 92 1004.7
20260506225540 60 242 2.6 9.6 0.00 0.19 0.19 92 1004.7
20260506225335 60 228 2.6 9.6 0.00 0.19 0.19 92 1004.7
20260506225133 60 200 3.5 9.6 0.00 0.19 0.19 92 1004.7
20260506224928 60 225 2.6 9.6 0.04 0.18 0.18 92 1004.8
20260506224602 60 219 2.6 9.6 0.04 0.18 0.18 92 1004.8
20260506224356 60 229 2.6 9.6 0.04 0.18 0.18 92 1004.8
20260506224146 60 223 1.7 6.1 0.04 0.18 0.18 92 1004.8
20260506223826 60 239 1.7 6.1 0.04 0.18 0.18 92 1004.9
20260506223504 60 217 1.7 6.1 0.04 0.18 0.18 92 1004.9
20260506223254 60 232 1.7 6.1 0.04 0.16 0.18 92 1004.9
20260506223056 60 222 2.6 7.0 0.05 0.16 0.17 92 1004.9
20260506222741 60 240 2.6 7.0 0.06 0.16 0.17 92 1004.9
20260506222539 60 240 2.6 7.0 0.09 0.16 0.17 92 1004.9
20260506222338 60 225 2.6 7.0 0.12 0.16 0.17 92 1005.0
20260506222135 60 220 2.6 7.0 0.13 0.16 0.17 92 1005.0
20260506221925 60 220 2.6 7.8 0.13 0.16 0.17 92 1005.1
20260506221725 60 234 2.6 7.8 0.00 0.16 0.16 92 1005.1
20260506221521 60 223 2.6 7.8 0.00 0.16 0.16 92 1005.1
20260506221319 60 196 2.6 7.8 0.00 0.14 0.15 91 1005.1
20260506221115 60 234 2.6 7.8 0.00 0.14 0.15 91 1005.2
20260506220906 60 184 2.6 11.3 0.00 0.14 0.15 91 1005.2
20260506220702 60 221 1.7 11.3 0.00 0.14 0.15 91 1005.2
20260506220344 60 246 1.7 11.3 0.00 0.14 0.15 91 1005.3
20260506220141 61 224 1.7 11.3 0.00 0.14 0.15 91 1005.2
20260506215935 61 224 2.6 11.3 0.00 0.14 0.15 91 1005.1
20260506215733 61 211 2.6 11.3 0.00 0.14 0.15 91 1005.2
20260506215530 61 237 2.6 11.3 0.04 0.14 0.15 91 1005.2
20260506215331 61 226 2.6 11.3 0.05 0.14 0.15 91 1005.3
20260506215010 61 240 2.6 10.4 0.05 0.14 0.15 91 1005.3
20260506214806 61 202 2.6 10.4 0.05 0.14 0.15 91 1005.4
20260506214559 61 240 2.6 10.4 0.05 0.14 0.15 91 1005.4
20260506214354 61 197 2.6 10.4 0.05 0.14 0.15 91 1005.4
20260506214147 61 213 2.6 7.0 0.05 0.14 0.15 91 1005.4
20260506213944 61 230 2.6 6.1 0.04 0.13 0.13 91 1005.4
20260506213626 61 215 2.6 12.2 0.04 0.13 0.13 91 1005.3
20260506213416 61 230 2.6 12.2 0.04 0.13 0.13 90 1005.4
20260506213054 61 196 2.6 12.2 0.04 0.13 0.13 90 1005.4
20260506212848 61 240 2.6 12.2 0.04 0.13 0.13 90 1005.4
20260506212645 61 233 3.5 12.2 0.04 0.13 0.13 90 1005.5
20260506212445 61 204 3.5 12.2 0.05 0.13 0.13 90 1005.6
20260506212238 61 212 3.5 12.2 0.06 0.13 0.13 90 1005.6
20260506212035 61 267 3.5 12.2 0.06 0.13 0.13 90 1005.7
20260506211835 62 229 3.5 12.2 0.06 0.13 0.13 90 1005.6
20260506211629 62 250 2.6 7.8 0.06 0.13 0.13 91 1005.6
20260506211423 62 244 2.6 7.8 0.06 0.13 0.13 91 1005.7
20260506211221 62 230 2.6 7.8 0.04 0.12 0.12 91 1005.7
20260506210905 62 215 1.7 7.0 0.04 0.12 0.12 91 1005.7
20260506210706 62 247 1.7 6.1 0.04 0.12 0.12 91 1005.7
20260506210505 62 240 0.9 6.1 0.04 0.12 0.12 91 1005.8
20260506210301 62 206 0.9 4.3 0.05 0.10 0.10 91 1005.7
20260506210100 62 242 0.9 3.5 0.05 0.10 0.10 91 1005.8
20260506205856 62 252 0.9 3.5 0.06 0.10 0.10 91 1005.7
20260506205657 62 260 0.9 3.5 0.06 0.10 0.10 91 1005.7
20260506205342 62 213 0.9 8.7 0.06 0.10 0.10 90 1005.8
20260506205141 62 204 0.9 8.7 0.06 0.10 0.10 91 1005.8
20260506204939 62 202 0.9 8.7 0.06 0.09 0.10 90 1005.8
20260506204731 62 202 0.9 8.7 0.06 0.09 0.10 90 1005.8
20260506204524 62 202 1.7 8.7 0.06 0.09 0.10 90 1005.8
20260506204319 62 223 1.7 8.7 0.06 0.09 0.10 90 1005.7
20260506203958 62 237 1.7 8.7 0.06 0.09 0.10 89 1005.7
20260506203753 62 228 1.7 8.7 0.06 0.09 0.09 89 1005.7
20260506203544 62 221 1.7 8.7 0.08 0.09 0.09 89 1005.8
20260506203344 62 218 1.7 7.0 0.10 0.09 0.09 89 1005.8
20260506203138 62 234 1.7 7.8 0.12 0.09 0.09 88 1005.8
20260506202930 62 236 2.6 7.8 0.12 0.09 0.09 88 1005.8
20260506202723 62 227 1.7 7.8 0.09 0.08 0.08 88 1005.8
20260506202518 62 249 2.6 7.8 0.09 0.08 0.08 88 1005.8
20260506202309 63 227 2.6 11.3 0.10 0.06 0.06 87 1005.8
20260506202109 63 223 2.6 11.3 0.15 0.06 0.06 87 1005.8
20260506201859 63 209 2.6 11.3 0.31 0.06 0.06 87 1005.7
20260506201656 63 233 2.6 11.3 0.04 0.06 0.06 87 1005.8
20260506201446 63 214 2.6 11.3 0.04 0.04 0.05 86 1005.8
20260506201131 63 234 2.6 11.3 0.05 0.04 0.05 86 1005.7
20260506200929 63 233 2.6 11.3 0.05 0.04 0.05 86 1005.7
20260506200613 63 216 1.7 11.3 0.05 0.04 0.05 86 1005.7
20260506200412 64 262 1.7 11.3 0.05 0.04 0.05 85 1005.5
20260506200208 64 188 0.9 6.1 0.05 0.04 0.05 86 1005.6
20260506195847 64 178 0.0 6.1 0.05 0.04 0.04 85 1005.6
20260506195637 64 267 0.0 6.1 0.05 0.04 0.04 84 1005.6
20260506195436 64 196 0.9 6.1 0.05 0.04 0.04 85 1005.6
20260506195229 64 196 0.9 6.1 0.05 0.04 0.04 84 1005.7
20260506195030 65 190 0.9 6.1 0.05 0.04 0.04 83 1005.7
20260506194825 65 190 0.9 6.1 0.05 0.03 0.04 83 1005.8
20260506194618 65 190 0.9 6.1 0.05 0.03 0.03 82 1005.7
20260506194414 66 254 0.9 6.1 0.06 0.03 0.03 82 1005.7
20260506194214 66 225 0.9 5.2 0.08 0.03 0.03 81 1005.7
20260506194011 66 197 0.0 5.2 0.08 0.03 0.03 80 1005.7
20260506193801 67 197 0.0 5.2 0.08 0.03 0.03 78 1005.8
20260506193442 67 183 0.0 5.2 0.04 0.02 0.02 81 1005.8
20260506193239 67 175 0.0 2.6 0.04 0.02 0.02 81 1005.9
20260506192922 68 120 0.0 2.6 0.04 0.01 0.02 80 1006.1
20260506192557 68 120 0.0 2.6 0.00 0.01 0.01 81 1006.0
20260506192350 68 120 0.0 1.7 0.00 0.01 0.01 80 1006.0
20260506192141 68 120 0.0 1.7 0.00 0.01 0.01 79 1006.0
20260506191938 68 120 0.0 1.7 0.00 0.01 0.01 79 1005.9
20260506191731 68 120 0.0 1.7 0.00 0.01 0.01 77 1006.0
20260506191526 68 120 0.0 1.7 0.00 0.01 0.01 76 1006.0
20260506191320 68 222 0.0 0.0 0.00 0.01 0.01 74 1005.9
20260506191113 68 222 0.9 2.6 0.00 0.00 0.00 73 1006.0
20260506190753 68 222 0.9 2.6 0.00 0.00 0.00 71 1006.0
20260506190549 68 222 0.9 2.6 0.00 0.00 0.00 70 1005.9
20260506190350 68 232 0.0 4.3 0.00 0.00 0.00 73 1005.9
20260506190145 69 175 0.0 4.3 0.00 0.00 0.00 72 1005.8
20260506185938 69 175 0.0 4.3 0.00 0.00 0.00 72 1005.8
20260506185737 69 245 0.9 4.3 0.00 0.00 0.00 72 1005.8
20260506185533 69 244 0.9 4.3 0.00 0.00 0.00 71 1005.8
20260506185330 69 234 0.9 4.3 0.00 0.00 0.00 71 1005.8
20260506185131 69 234 0.9 4.3 0.00 0.00 0.00 71 1005.8
20260506184928 69 234 1.7 4.3 0.00 0.00 0.00 70 1005.8
20260506184605 69 180 1.7 12.2 0.00 0.00 0.00 69 1005.7
20260506184242 70 183 1.7 12.2 0.00 0.00 0.00 69 1005.7
20260506184037 70 227 1.7 12.2 0.00 0.00 0.00 69 1005.7
20260506183837 70 219 1.7 12.2 0.00 0.00 0.00 67 1005.7
20260506183633 70 229 1.7 12.2 0.00 0.00 0.00 66 1005.7
20260506183429 70 235 2.6 12.2 0.00 0.00 0.00 65 1005.7
20260506183220 70 225 2.6 12.2 0.00 0.00 0.00 64 1005.6
20260506183021 70 242 3.5 12.2 0.00 0.00 0.00 66 1005.6
20260506182811 70 254 3.5 12.2 0.00 0.00 0.00 66 1005.6
20260506182602 70 223 3.5 12.2 0.00 0.00 0.00 63 1005.6
20260506182359 71 263 2.6 7.0 0.00 0.00 0.00 65 1005.7
20260506182200 71 249 2.6 10.4 0.00 0.00 0.00 64 1005.7
20260506182001 72 239 2.6 10.4 0.00 0.00 0.00 63 1005.8
20260506181641 72 259 2.6 10.4 0.00 0.00 0.00 60 1005.8
20260506181437 72 237 2.6 10.4 0.00 0.00 0.00 60 1005.7
20260506181232 72 230 3.5 11.3 0.00 0.00 0.00 59 1005.8
20260506181030 73 202 3.5 11.3 0.00 0.00 0.00 58 1005.8
20260506180820 73 221 3.5 11.3 0.00 0.00 0.00 60 1005.8
20260506180614 73 230 3.5 11.3 0.00 0.00 0.00 58 1005.8
20260506180408 73 196 2.6 11.3 0.00 0.00 0.00 59 1005.8
20260506180159 73 206 2.6 11.3 0.00 0.00 0.00 57 1005.9
20260506175954 73 224 2.6 11.3 0.00 0.00 0.00 58 1005.9
20260506175753 73 256 2.6 11.3 0.00 0.00 0.00 59 1006.0
20260506175553 73 176 2.6 11.3 0.00 0.00 0.00 58 1005.9
20260506175239 73 232 2.6 9.6 0.00 0.00 0.00 59 1005.8
20260506175032 72 248 3.5 9.6 0.00 0.00 0.00 59 1005.9
20260506174826 72 201 3.5 10.4 0.00 0.00 0.00 59 1005.9
20260506174617 72 238 3.5 10.4 0.00 0.00 0.00 60 1005.9
20260506174413 72 163 3.5 10.4 0.00 0.00 0.00 59 1005.9
20260506174212 73 238 3.5 10.4 0.00 0.00 0.00 59 1005.9
20260506174013 73 197 3.5 10.4 0.00 0.00 0.00 58 1005.9
20260506173803 73 227 3.5 13.0 0.00 0.00 0.00 58 1006.0
20260506173556 73 198 3.5 13.0 0.00 0.00 0.00 58 1006.0
20260506173350 73 223 3.5 13.0 0.00 0.00 0.00 57 1005.9
20260506173146 74 52 3.5 13.0 0.00 0.00 0.00 57 1005.8
20260506172943 74 177 3.5 13.9 0.00 0.00 0.00 56 1006.0
20260506172736 74 209 3.5 13.9 0.00 0.00 0.00 56 1006.1
20260506172535 74 184 3.5 13.9 0.00 0.00 0.00 55 1005.9
20260506172327 74 223 3.5 13.9 0.00 0.00 0.00 55 1006.1
20260506172003 74 153 4.3 13.9 0.00 0.00 0.00 53 1006.0
20260506171758 74 229 4.3 13.9 0.00 0.00 0.00 55 1006.0
20260506171557 74 240 4.3 13.9 0.00 0.00 0.00 55 1006.1
20260506171353 74 232 3.5 13.9 0.00 0.00 0.00 55 1006.1
20260506171143 74 213 2.6 13.9 0.00 0.00 0.00 56 1006.3
20260506170943 73 184 2.6 10.4 0.00 0.00 0.00 56 1006.3
20260506170737 73 165 2.6 8.7 0.00 0.00 0.00 58 1006.4
20260506170422 73 203 2.6 8.7 0.00 0.00 0.00 58 1006.3
20260506170106 73 245 3.5 8.7 0.00 0.00 0.00 58 1006.4
20260506165907 73 174 3.5 8.7 0.00 0.00 0.00 57 1006.3
20260506165706 73 157 2.6 8.7 0.00 0.00 0.00 58 1006.3
20260506165503 73 212 3.5 9.6 0.00 0.00 0.00 58 1006.4
20260506165305 73 234 3.5 9.6 0.00 0.00 0.00 59 1006.4
20260506165101 73 227 2.6 9.6 0.00 0.00 0.00 59 1006.6
20260506164855 72 209 2.6 9.6 0.00 0.00 0.00 58 1006.5
20260506164655 72 234 3.5 9.6 0.00 0.00 0.00 59 1006.6
20260506164335 72 237 3.5 9.6 0.00 0.00 0.00 58 1006.6
20260506164018 72 220 3.5 9.6 0.00 0.00 0.00 59 1006.7
20260506163817 72 199 3.5 9.6 0.00 0.00 0.00 58 1006.7
20260506163616 72 180 3.5 8.7 0.00 0.00 0.00 59 1006.8
20260506163407 72 224 3.5 8.7 0.00 0.00 0.00 59 1006.8
20260506163206 72 241 3.5 8.7 0.00 0.00 0.00 59 1006.8
20260506163004 72 231 3.5 8.7 0.00 0.00 0.00 59 1006.8
20260506162803 72 194 3.5 8.7 0.00 0.00 0.00 59 1006.9
20260506162558 72 223 3.5 8.7 0.00 0.00 0.00 60 1006.9
20260506162350 72 252 3.5 8.7 0.00 0.00 0.00 59 1007.0
20260506162149 72 229 3.5 8.7 0.00 0.00 0.00 59 1007.0
20260506161948 72 207 3.5 11.3 0.00 0.00 0.00 59 1007.0
20260506161744 72 250 3.5 11.3 0.00 0.00 0.00 59 1007.1
20260506161542 72 209 3.5 11.3 0.00 0.00 0.00 60 1007.2
20260506161224 72 219 3.5 11.3 0.00 0.00 0.00 61 1007.3
20260506161021 72 143 3.5 11.3 0.00 0.00 0.00 60 1007.3
20260506160817 72 228 3.5 11.3 0.00 0.00 0.00 60 1007.3
20260506160453 72 242 2.6 11.3 0.00 0.00 0.00 60 1007.4
20260506160248 72 201 3.5 11.3 0.00 0.00 0.00 61 1007.5
20260506160044 72 226 3.5 11.3 0.00 0.00 0.00 61 1007.5
20260506155838 72 229 3.5 11.3 0.00 0.00 0.00 60 1007.6
20260506155636 72 242 3.5 11.3 0.00 0.00 0.00 60 1007.5
20260506155434 72 231 3.5 11.3 0.00 0.00 0.00 60 1007.5
20260506155234 72 212 3.5 11.3 0.00 0.00 0.00 60 1007.6
20260506155023 72 251 3.5 11.3 0.00 0.00 0.00 60 1007.7
20260506154706 72 213 3.5 11.3 0.00 0.00 0.00 61 1007.7
20260506154458 72 225 4.3 11.3 0.00 0.00 0.00 61 1007.8
20260506154249 71 245 4.3 13.0 0.00 0.00 0.00 61 1007.9
20260506153927 71 200 4.3 13.0 0.00 0.00 0.00 61 1007.9
20260506153724 71 202 4.3 13.0 0.00 0.00 0.00 61 1007.9
20260506153515 72 221 4.3 13.0 0.00 0.00 0.00 61 1007.9
20260506153307 72 206 4.3 13.0 0.00 0.00 0.00 60 1008.0
20260506153102 72 245 4.3 15.6 0.00 0.00 0.00 60 1007.9
20260506152853 72 145 4.3 15.6 0.00 0.00 0.00 61 1008.0
20260506152650 71 262 4.3 15.6 0.00 0.00 0.00 61 1008.1
20260506152332 71 244 4.3 15.6 0.00 0.00 0.00 61 1008.0
20260506152127 71 228 4.3 15.6 0.00 0.00 0.00 61 1007.9
20260506151918 71 234 5.2 15.6 0.00 0.00 0.00 61 1007.9
20260506151716 71 240 5.2 15.6 0.00 0.00 0.00 61 1007.9
20260506151515 71 232 5.2 15.6 0.00 0.00 0.00 61 1007.9
20260506151305 71 239 5.2 15.6 0.00 0.00 0.00 61 1007.9
20260506151058 71 223 4.3 11.3 0.00 0.00 0.00 61 1008.0
20260506150857 71 234 3.5 8.7 0.00 0.00 0.00 61 1008.1
20260506150652 71 246 3.5 7.8 0.00 0.00 0.00 62 1008.2
20260506150447 71 218 3.5 7.8 0.00 0.00 0.00 61 1008.3
20260506150237 71 222 3.5 7.8 0.00 0.00 0.00 62 1008.2
20260506150032 71 236 3.5 7.8 0.00 0.00 0.00 61 1008.2
20260506145830 71 224 3.5 7.8 0.00 0.00 0.00 61 1008.1
20260506145516 71 222 3.5 7.8 0.00 0.00 0.00 62 1008.0
20260506145308 71 260 3.5 7.8 0.00 0.00 0.00 62 1008.1
20260506144944 71 222 3.5 7.8 0.00 0.00 0.00 62 1008.1
20260506144737 71 244 3.5 7.8 0.00 0.00 0.00 63 1007.9
20260506144535 71 223 2.6 7.8 0.00 0.00 0.00 64 1007.9
20260506144334 71 235 3.5 7.8 0.00 0.00 0.00 64 1008.0
20260506144134 70 246 3.5 7.8 0.00 0.00 0.00 63 1008.0
20260506143820 70 209 3.5 9.6 0.00 0.00 0.00 63 1008.0
20260506143500 70 262 3.5 9.6 0.00 0.00 0.00 63 1008.0
20260506143255 70 225 3.5 9.6 0.00 0.00 0.00 64 1008.0
20260506143051 70 207 3.5 9.6 0.00 0.00 0.00 64 1007.9
20260506142731 70 227 4.3 13.9 0.00 0.00 0.00 65 1007.8
20260506142527 70 233 4.3 13.9 0.00 0.00 0.00 66 1007.8
20260506142319 70 229 4.3 13.9 0.00 0.00 0.00 65 1007.7
20260506142110 69 240 4.3 13.9 0.00 0.00 0.00 65 1007.7
20260506141902 69 244 5.2 13.9 0.00 0.00 0.00 65 1007.7
20260506141655 69 211 5.2 13.9 0.00 0.00 0.00 66 1007.8
20260506141452 69 254 4.3 13.9 0.00 0.00 0.00 66 1008.0
20260506141247 69 244 4.3 13.9 0.00 0.00 0.00 66 1007.9
20260506141039 69 231 4.3 13.9 0.00 0.00 0.00 67 1007.9
20260506140837 69 215 3.5 10.4 0.00 0.00 0.00 67 1007.9
20260506140637 69 231 3.5 10.4 0.00 0.00 0.00 67 1007.9
20260506140429 68 229 3.5 10.4 0.00 0.00 0.00 67 1007.8
20260506140222 68 185 3.5 7.8 0.00 0.00 0.00 68 1007.9
20260506140015 68 248 2.6 7.8 0.00 0.00 0.00 68 1007.9
20260506135805 68 227 2.6 7.8 0.00 0.00 0.00 68 1008.0
20260506135555 68 176 2.6 7.8 0.00 0.00 0.00 68 1008.0
20260506135236 68 264 2.6 7.0 0.00 0.00 0.00 68 1008.1
20260506135030 68 229 2.6 7.0 0.00 0.00 0.00 68 1008.1
20260506134829 67 242 2.6 7.0 0.00 0.00 0.00 69 1008.1
20260506134625 67 212 3.5 7.0 0.00 0.00 0.00 68 1008.2
20260506134420 67 243 2.6 7.0 0.00 0.00 0.00 68 1008.3
20260506134215 67 223 2.6 7.8 0.00 0.00 0.00 69 1008.3
20260506134006 67 231 2.6 7.8 0.00 0.00 0.00 68 1008.3
20260506133800 67 186 2.6 7.8 0.00 0.00 0.00 69 1008.4
20260506133556 67 256 2.6 7.8 0.00 0.00 0.00 69 1008.4
20260506133357 67 229 2.6 10.4 0.00 0.00 0.00 69 1008.5
20260506133033 67 250 2.6 10.4 0.00 0.00 0.00 69 1008.5
20260506132833 67 232 3.5 10.4 0.00 0.00 0.00 69 1008.4
20260506132630 67 230 3.5 10.4 0.00 0.00 0.00 69 1008.4
20260506132428 67 230 3.5 10.4 0.00 0.00 0.00 69 1008.3
20260506132109 67 240 3.5 10.4 0.00 0.00 0.00 69 1008.3
20260506131857 67 240 3.5 10.4 0.00 0.00 0.00 69 1008.2
20260506131652 67 236 3.5 10.4 0.00 0.00 0.00 70 1008.2
20260506131448 67 233 3.5 10.4 0.00 0.00 0.00 69 1008.2
20260506131240 67 212 3.5 10.4 0.00 0.00 0.00 70 1008.3
20260506131030 67 231 3.5 10.4 0.00 0.00 0.00 70 1008.3
20260506130825 67 235 3.5 10.4 0.00 0.00 0.00 70 1008.5
20260506130624 67 255 3.5 10.4 0.00 0.00 0.00 70 1008.5
20260506130423 67 225 3.5 10.4 0.00 0.00 0.00 70 1008.5
20260506130218 66 206 3.5 10.4 0.00 0.00 0.00 69 1008.5
20260506125902 67 225 3.5 10.4 0.00 0.00 0.00 69 1008.4
20260506125701 67 224 3.5 10.4 0.00 0.00 0.00 69 1008.4
20260506125458 67 225 2.6 10.4 0.00 0.00 0.00 69 1008.3
20260506125259 67 231 2.6 7.0 0.00 0.00 0.00 69 1008.3
20260506124942 67 253 2.6 7.0 0.00 0.00 0.00 69 1008.2
20260506124741 67 216 1.7 7.0 0.00 0.00 0.00 70 1008.2
20260506124537 67 219 2.6 7.0 0.00 0.00 0.00 70 1008.2
20260506124212 66 239 2.6 7.0 0.00 0.00 0.00 71 1008.3
20260506124004 66 248 2.6 7.0 0.00 0.00 0.00 70 1008.4
20260506123645 66 204 2.6 7.0 0.00 0.00 0.00 71 1008.5
20260506123442 66 215 2.6 7.0 0.00 0.00 0.00 70 1008.6
20260506123126 66 230 3.5 7.0 0.00 0.00 0.00 70 1008.6
20260506122920 66 234 3.5 9.6 0.00 0.00 0.00 70 1008.5
20260506122712 66 184 3.5 9.6 0.00 0.00 0.00 70 1008.6
20260506122513 66 239 3.5 9.6 0.00 0.00 0.00 71 1008.6
20260506122307 66 230 3.5 9.6 0.00 0.00 0.00 71 1008.6
20260506122102 65 238 3.5 9.6 0.00 0.00 0.00 71 1008.5
20260506121902 65 243 3.5 9.6 0.00 0.00 0.00 72 1008.5
20260506121653 65 226 3.5 9.6 0.00 0.00 0.00 72 1008.4
20260506121445 65 230 3.5 9.6 0.00 0.00 0.00 72 1008.4
20260506121245 65 215 3.5 9.6 0.00 0.00 0.00 72 1008.4
20260506121037 65 221 3.5 9.6 0.00 0.00 0.00 72 1008.4
20260506120828 65 231 3.5 7.0 0.00 0.00 0.00 72 1008.6
20260506120512 65 231 3.5 7.0 0.00 0.00 0.00 72 1008.7
20260506120148 65 230 3.5 7.0 0.00 0.00 0.00 72 1008.7
20260506115949 65 231 2.6 7.0 0.00 0.00 0.00 72 1008.6
20260506115634 65 226 2.6 7.0 0.00 0.00 0.00 72 1008.7
20260506115433 65 241 2.6 8.7 0.00 0.00 0.00 72 1008.7
20260506115113 65 217 2.6 8.7 0.00 0.00 0.00 72 1008.7
20260506114908 65 234 2.6 8.7 0.00 0.00 0.00 72 1008.8
20260506114545 65 252 4.3 9.6 0.00 0.00 0.00 72 1008.8
20260506114220 65 213 4.3 9.6 0.00 0.00 0.00 71 1008.9
20260506114017 65 243 3.5 9.6 0.00 0.00 0.00 72 1008.9
20260506113651 64 238 3.5 9.6 0.00 0.00 0.00 71 1008.9
20260506113445 65 194 2.6 13.0 0.00 0.00 0.00 71 1008.9
20260506113246 65 232 2.6 13.0 0.00 0.00 0.00 71 1008.9
20260506113043 65 270 2.6 13.0 0.00 0.00 0.00 72 1008.9
20260506112841 64 236 2.6 13.0 0.00 0.00 0.00 72 1008.9
20260506112637 64 188 2.6 13.0 0.00 0.00 0.00 72 1008.8
20260506112435 64 238 2.6 13.0 0.00 0.00 0.00 72 1008.8
20260506112121 64 220 2.6 13.0 0.00 0.00 0.00 72 1008.8
20260506111916 64 238 2.6 13.0 0.00 0.00 0.00 72 1008.8
20260506111713 64 204 2.6 13.0 0.00 0.00 0.00 72 1008.7
20260506111513 64 198 2.6 7.8 0.00 0.00 0.00 72 1008.7
20260506111314 64 221 2.6 7.8 0.00 0.00 0.00 73 1008.8
20260506111108 64 202 2.6 7.8 0.00 0.00 0.00 72 1008.8
20260506110907 64 208 2.6 7.8 0.00 0.00 0.00 72 1008.8
20260506110705 64 221 2.6 7.8 0.00 0.00 0.00 73 1008.9
20260506110455 63 225 1.7 7.0 0.00 0.00 0.00 73 1009.0
20260506110245 63 244 2.6 7.0 0.00 0.00 0.00 73 1009.0
20260506110040 63 235 2.6 7.0 0.00 0.00 0.00 73 1009.0
20260506105839 63 232 1.7 7.0 0.00 0.00 0.00 73 1009.0
20260506105636 63 221 2.6 7.0 0.00 0.00 0.00 73 1009.0
20260506105432 63 241 2.6 7.0 0.00 0.00 0.00 73 1008.9
20260506105108 63 246 1.7 7.0 0.00 0.00 0.00 73 1008.9
20260506104901 63 242 2.6 7.0 0.00 0.00 0.00 73 1008.8
20260506104657 63 229 2.6 7.0 0.00 0.00 0.00 73 1008.9
20260506104455 63 228 2.6 7.0 0.00 0.00 0.00 73 1008.8
20260506104253 63 234 2.6 7.0 0.00 0.00 0.00 73 1008.8
20260506104050 63 236 2.6 7.0 0.00 0.00 0.00 73 1008.8
20260506103725 63 238 2.6 7.0 0.00 0.00 0.00 73 1008.8
20260506103522 63 245 2.6 7.0 0.00 0.00 0.00 73 1008.8
20260506103315 63 245 2.6 7.0 0.00 0.00 0.00 73 1008.9
20260506103110 63 284 2.6 5.2 0.00 0.00 0.00 73 1008.9
20260506102907 63 248 1.7 5.2 0.00 0.00 0.00 73 1008.9
20260506102658 63 222 2.6 5.2 0.00 0.00 0.00 73 1008.8
20260506102450 63 233 2.6 10.4 0.00 0.00 0.00 73 1008.8
20260506102130 63 233 1.7 10.4 0.00 0.00 0.00 73 1008.8
20260506101929 63 235 1.7 10.4 0.00 0.00 0.00 73 1008.9
20260506101730 63 218 1.7 10.4 0.00 0.00 0.00 73 1008.9
20260506101526 63 216 1.7 10.4 0.00 0.00 0.00 73 1008.9
20260506101210 63 238 1.7 10.4 0.00 0.00 0.00 73 1009.0
20260506101008 63 229 2.6 10.4 0.00 0.00 0.00 73 1009.0
20260506100802 63 240 2.6 10.4 0.00 0.00 0.00 73 1009.0
20260506100553 63 240 2.6 10.4 0.00 0.00 0.00 73 1008.9
20260506100351 63 212 1.7 6.1 0.00 0.00 0.00 73 1008.8
20260506100143 63 232 1.7 6.1 0.00 0.00 0.00 73 1008.8
20260506095933 63 254 1.7 6.1 0.00 0.00 0.00 73 1008.9
20260506095733 63 269 1.7 6.1 0.00 0.00 0.00 73 1008.8
20260506095531 63 235 1.7 6.1 0.00 0.00 0.00 73 1008.8
20260506095213 62 236 1.7 6.1 0.00 0.00 0.00 73 1008.8
20260506095011 62 183 1.7 6.1 0.00 0.00 0.00 73 1008.6
20260506094646 62 232 1.7 6.1 0.00 0.00 0.00 73 1008.8
20260506094436 62 227 1.7 3.5 0.00 0.00 0.00 73 1008.8
20260506094231 62 257 1.7 3.5 0.00 0.00 0.00 73 1008.9
20260506094023 62 243 1.7 3.5 0.00 0.00 0.00 73 1008.9
20260506093814 62 215 1.7 3.5 0.00 0.00 0.00 73 1008.9
20260506093604 62 215 1.7 3.5 0.00 0.00 0.00 73 1008.9
20260506093403 63 246 1.7 4.3 0.00 0.00 0.00 72 1008.9
20260506093155 63 232 1.7 4.3 0.00 0.00 0.00 72 1008.9
20260506092947 63 240 1.7 4.3 0.00 0.00 0.00 72 1008.9
20260506092746 63 224 2.6 4.3 0.00 0.00 0.00 72 1008.8
20260506092546 63 261 2.6 4.3 0.00 0.00 0.00 72 1008.8
20260506092229 63 226 2.6 7.0 0.00 0.00 0.00 72 1008.8
20260506091905 63 220 2.6 7.0 0.00 0.00 0.00 72 1008.8
20260506091705 63 225 2.6 7.0 0.00 0.00 0.00 72 1008.8
20260506091501 63 247 2.6 7.0 0.00 0.00 0.00 72 1008.8
20260506091251 63 213 2.6 7.0 0.00 0.00 0.00 72 1008.8
20260506090930 63 225 2.6 7.0 0.00 0.00 0.00 71 1008.6
20260506090610 63 215 3.5 7.0 0.00 0.00 0.00 71 1008.6
20260506090409 63 223 3.5 6.1 0.00 0.00 0.00 71 1008.7
20260506090203 63 234 2.6 6.1 0.00 0.00 0.00 71 1008.6
20260506090002 63 210 2.6 6.1 0.00 0.00 0.00 71 1008.7
20260506085756 63 237 2.6 6.1 0.00 0.00 0.00 71 1008.6
20260506085555 63 217 2.6 6.1 0.00 0.00 0.00 71 1008.7
20260506085234 63 221 2.6 10.4 0.00 0.00 0.00 71 1008.7
20260506084908 63 209 2.6 10.4 0.00 0.00 0.00 70 1008.8
20260506084706 64 244 2.6 10.4 0.00 0.00 0.00 70 1008.7
20260506084503 64 229 3.5 10.4 0.00 0.00 0.00 70 1008.7
20260506084256 64 244 3.5 10.4 0.00 0.00 0.00 70 1008.6
20260506084056 64 245 2.6 10.4 0.00 0.00 0.00 70 1008.6
20260506083853 64 229 3.5 10.4 0.00 0.00 0.00 70 1008.6
20260506083652 64 205 3.5 10.4 0.00 0.00 0.00 70 1008.6
20260506083442 64 246 2.6 10.4 0.00 0.00 0.00 70 1008.6
20260506083236 64 234 2.6 6.1 0.00 0.00 0.00 70 1008.6
20260506083027 64 236 2.6 6.1 0.00 0.00 0.00 70 1008.7
20260506082821 64 221 1.7 6.1 0.00 0.00 0.00 69 1008.7
20260506082615 64 228 1.7 6.1 0.00 0.00 0.00 69 1008.7
20260506082408 64 241 2.6 6.1 0.00 0.00 0.00 69 1008.6
20260506082207 64 211 2.6 6.1 0.00 0.00 0.00 69 1008.7
20260506082007 64 242 2.6 6.1 0.00 0.00 0.00 69 1008.6
20260506081806 64 225 2.6 7.0 0.00 0.00 0.00 69 1008.6
20260506081601 64 207 2.6 7.0 0.00 0.00 0.00 69 1008.7
20260506081351 64 257 2.6 7.0 0.00 0.00 0.00 69 1008.6
20260506081145 64 254 2.6 7.0 0.00 0.00 0.00 69 1008.6
20260506080937 64 242 2.6 7.0 0.00 0.00 0.00 69 1008.6
20260506080727 64 235 2.6 7.0 0.00 0.00 0.00 68 1008.6
20260506080520 64 247 2.6 7.0 0.00 0.00 0.00 68 1008.5
20260506080316 64 220 2.6 7.0 0.00 0.00 0.00 68 1008.5
20260506080106 64 240 2.6 7.0 0.00 0.00 0.00 68 1008.5